Погода в Беляе

Россия / Томская область     57°03′04″N   86°16′07″E
темп.,
°C
ветер,
м/с
пор.,
м/с
влажн.,
%
обл.,
%
осадки,
мм/ч
давл.,
гПа
погр.,
м
24 мая, вт
вт2401:00+11ююв115752 0.0 102210
04:00+10ююз226186 0.0 102211
07:00+12ююв2363100 0.0 1023115
10:00+18ю33455 0.0 1022573
13:00+21ю22355 0.0 10211333
16:00+23юв11340 0.0 10201318
19:00+22св12370 0.0 10191227
22:00+17св12500 0.0 101911
25 мая, ср
ср2501:00+14всв22600 0.0 101920
04:00+13в226314 0.0 101912
07:00+15в12590 0.0 101986
10:00+21ссв23430 0.0 1018526
13:00+25с34360 0.0 10171640
16:00+27с35340 0.0 10162395
19:00+25с584440 0.0 1016488
22:00+18с38611 0.0 1017129
26 мая, чт
чт2601:00+15ссв35755 0.0 101875
04:00+13св37870 0.0 1019158
07:00+15св477912 0.0 1019310
10:00+19всв45523 0.0 10191227
13:00+22св45400 0.0 10181815
16:00+23св44335 0.0 10161970
19:00+22св454120 0.0 1015974
22:00+16св485378 0.0 1015136
27 мая, пт
пт2701:00+13св375948 0.0 1014108
04:00+11св346493 0.0 101447
07:00+13св256271 0.0 1013163
10:00+18св45425 0.0 1013971
13:00+21св45300 0.0 10121956
16:00+22св45250 0.0 10122120
19:00+21в35360 0.0 1011811
22:00+16в614514 0.0 1013423
28 мая, сб
сб2801:00+13вюв413595 0.0 1013326
04:00+11в5126682 0.0 1013249
07:00+12в59660 0.0 1014282
10:00+18вюв68495 0.0 1013923
13:00+21вюв56352 0.0 10121722
16:00+22вюв44305 0.0 10111836
19:00+22всв343860 0.0 1010603
22:00+16всв3552100 0.0 101065